TimeEST,TemperatureF,Dew PointF,Humidity,Sea Level PressureIn,VisibilityMPH,Wind Direction,Wind SpeedMPH,Gust SpeedMPH,PrecipitationIn,Events,Conditions,WindDirDegrees,DateUTC
12:15 AM,71.6,69.8,94,29.99,10.0,South,5.8,-,N/A,,Scattered Clouds,180,2012-12-29 05:15:00
12:35 AM,71.6,69.8,94,29.98,10.0,South,6.9,-,N/A,,Mostly Cloudy,180,2012-12-29 05:35:00
12:55 AM,71.6,69.8,94,29.97,10.0,South,6.9,-,N/A,,Overcast,170,2012-12-29 05:55:00
1:15 AM,71.6,69.8,94,29.97,10.0,South,5.8,-,N/A,,Overcast,180,2012-12-29 06:15:00
1:35 AM,71.6,69.8,94,29.97,10.0,South,5.8,-,N/A,,Overcast,190,2012-12-29 06:35:00
1:55 AM,71.6,69.8,94,29.96,10.0,South,6.9,-,N/A,,Mostly Cloudy,180,2012-12-29 06:55:00
2:15 AM,71.6,69.8,94,29.96,10.0,South,8.1,-,N/A,,Overcast,170,2012-12-29 07:15:00
2:35 AM,71.6,69.8,94,29.96,10.0,SSW,5.8,-,N/A,,Mostly Cloudy,200,2012-12-29 07:35:00
2:55 AM,71.6,69.8,94,29.96,10.0,South,6.9,-,N/A,,Scattered Clouds,190,2012-12-29 07:55:00
3:15 AM,71.6,69.8,94,29.96,10.0,South,4.6,-,N/A,,Clear,190,2012-12-29 08:15:00
3:35 AM,71.6,69.8,94,29.95,10.0,South,5.8,-,N/A,,Clear,180,2012-12-29 08:35:00
3:55 AM,71.6,69.8,94,29.95,10.0,South,5.8,-,N/A,,Clear,180,2012-12-29 08:55:00
4:15 AM,71.6,69.8,94,29.94,10.0,South,9.2,-,N/A,,Clear,180,2012-12-29 09:15:00
4:35 AM,71.6,69.8,94,29.94,10.0,South,8.1,-,N/A,,Clear,190,2012-12-29 09:35:00
4:55 AM,71.6,69.8,94,29.94,10.0,South,8.1,-,N/A,,Clear,180,2012-12-29 09:55:00
5:15 AM,71.6,69.8,94,29.94,10.0,South,9.2,-,N/A,,Clear,190,2012-12-29 10:15:00
6:47 AM,73.4,69.8,88,30.00,7.0,SW,10.4,-,N/A,,Scattered Clouds,220,2012-12-29 11:47:00
7:47 AM,73.4,71.6,94,30.00,7.0,SSW,8.1,-,N/A,,Mostly Cloudy,210,2012-12-29 12:47:00
8:47 AM,73.4,71.6,94,30.02,6.0,SW,11.5,17.3,N/A,,Overcast,220,2012-12-29 13:47:00
9:47 AM,75.2,71.6,89,30.02,6.0,SW,11.5,17.3,N/A,,Overcast,220,2012-12-29 14:47:00
10:47 AM,77.0,71.6,83,30.04,7.0,SW,13.8,20.7,N/A,,Overcast,220,2012-12-29 15:47:00
11:47 AM,78.8,73.4,83,30.01,7.0,SW,15.0,20.7,N/A,,Mostly Cloudy,230,2012-12-29 16:47:00
12:47 PM,80.6,71.6,74,29.95,7.0,WSW,13.8,23.0,N/A,,Mostly Cloudy,240,2012-12-29 17:47:00
1:47 PM,82.4,69.8,66,29.94,7.0,WSW,19.6,25.3,N/A,,Mostly Cloudy,240,2012-12-29 18:47:00
2:47 PM,82.4,64.4,54,29.93,7.0,WSW,20.7,29.9,N/A,,Mostly Cloudy,240,2012-12-29 19:47:00
3:47 PM,82.4,66.2,58,29.92,7.0,WSW,17.3,27.6,N/A,,Mostly Cloudy,250,2012-12-29 20:47:00
4:47 PM,80.6,68.0,65,29.93,7.0,West,13.8,23.0,N/A,,Mostly Cloudy,260,2012-12-29 21:47:00
6:47 PM,77.0,68.0,74,29.97,7.0,West,13.8,18.4,N/A,,Mostly Cloudy,260,2012-12-29 23:47:00
7:15 PM,73.4,66.2,78,30.00,10.0,West,10.4,-,N/A,,Clear,280,2012-12-30 00:15:00
7:35 PM,73.4,64.4,73,30.02,10.0,WNW,16.1,20.7,N/A,,Scattered Clouds,300,2012-12-30 00:35:00
7:55 PM,71.6,60.8,69,30.03,10.0,WNW,12.7,17.3,N/A,,Mostly Cloudy,290,2012-12-30 00:55:00
8:15 PM,69.8,60.8,73,30.04,10.0,West,13.8,-,N/A,,Scattered Clouds,280,2012-12-30 01:15:00
8:35 PM,68.0,60.8,78,30.05,10.0,West,10.4,16.1,N/A,,Scattered Clouds,280,2012-12-30 01:35:00
8:55 PM,68.0,60.8,78,30.06,10.0,WNW,11.5,-,N/A,,Clear,290,2012-12-30 01:55:00
9:15 PM,66.2,60.8,83,30.07,10.0,WNW,12.7,16.1,N/A,,Clear,290,2012-12-30 02:15:00
9:35 PM,64.4,59.0,83,30.08,10.0,WNW,12.7,19.6,N/A,,Clear,290,2012-12-30 02:35:00
9:55 PM,64.4,59.0,83,30.09,10.0,WNW,8.1,16.1,N/A,,Clear,300,2012-12-30 02:55:00
10:15 PM,62.6,55.4,77,30.10,10.0,WNW,12.7,18.4,N/A,,Clear,300,2012-12-30 03:15:00
10:35 PM,62.6,53.6,72,30.11,10.0,WNW,15.0,19.6,N/A,,Clear,290,2012-12-30 03:35:00
10:55 PM,60.8,51.8,72,30.12,10.0,WNW,16.1,19.6,N/A,,Clear,290,2012-12-30 03:55:00
11:15 PM,59.0,51.8,77,30.12,10.0,WNW,12.7,17.3,N/A,,Clear,290,2012-12-30 04:15:00
11:35 PM,59.0,50.0,72,30.13,10.0,WNW,16.1,21.9,N/A,,Clear,300,2012-12-30 04:35:00
11:55 PM,57.2,48.2,72,30.13,10.0,NW,17.3,26.5,N/A,,Clear,310,2012-12-30 04:55:00